Regional Weather Roundup
Issued by NWS

Home | Current Version | Previous Version | Text Only | Print | Product List | Glossary On
Versions: 1 2 3 4 5 6 7 8 9 10 11 12 13 14 15 16 17 18 19 20 21 22 23 24 25 26 27 28 29 30 31 32 33 34 35 36 37 38 39 40 41 42 43 44 45 46 47 48 49 50
000
ASUS44 KBMX 080110
RWRAL

ALABAMA REGIONAL WEATHER ROUNDUP
NATIONAL WEATHER SERVICE BIRMINGHAM AL
700 PM CST SUN FEB 07 2016

NOTE: "FAIR" INDICATES FEW OR NO CLOUDS BELOW 12,000 FEET
WITH NO SIGNIFICANT WEATHER AND/OR OBSTRUCTIONS TO VISIBILITY.

THE REMARK "TC" DENOTES TEMPERATURE IN DEGREES CELSIUS.

ALZ001>011-014-016>018-020-080200-
NORTH ALABAMA

CITY           SKY/WX    TMP DP  RH WIND       PRES   REMARKS
MUSCLE SHOALS  PTCLDY    47  23  38 SW7       30.01F
HUNTSVILLE     PTCLDY    47  21  35 W8        30.00F
DECATUR        CLEAR     49  22  34 SW8       30.01F
HALEYVILLE     FAIR      44  22  41 S5        30.03F
GADSDEN        CLEAR     41  28  60 SW3       30.02S
$$

ALZ012-013-022-023-030>036-040>044-080200-
WEST CENTRAL ALABAMA

CITY           SKY/WX    TMP DP  RH WIND       PRES   REMARKS
TUSCALOOSA     CLEAR     44  32  62 CALM      30.06F
$$

ALZ015-024>027-033>036-040>044-080200-
CENTRAL ALABAMA

CITY           SKY/WX    TMP DP  RH WIND       PRES   REMARKS
BIRMINGHAM     PTCLDY    50  22  33 SW6       30.05S
MONTGOMERY     CLEAR     51  26  37 W7        30.07S
SHELBY CO ARPT CLEAR     45  29  53 CALM      30.05S
MAXWELL AFB    CLEAR     51  27  39 W6        30.05S
GREENVILLE     FAIR      49  25  39 W3        30.07
$$

ALZ019-021-028-029-037-038-045>048-080200-
EAST CENTRAL ALABAMA

CITY           SKY/WX    TMP DP  RH WIND       PRES   REMARKS
ANNISTON       CLEAR     40  30  67 SW3       30.03R
ALEXANDER CITY CLEAR     40  30  66 CALM      30.04S
AUBURN         CLEAR     49  22  34 W6        30.04S
$$

ALZ051>064-080200-
SOUTHWEST ALABAMA

CITY           SKY/WX    TMP DP  RH WIND       PRES   REMARKS
MOBILE         CLEAR     48  32  53 SW6       30.13R
BROOKLEY FIELD CLEAR     50  33  52 SW7       30.15R
EVERGREEN      CLEAR     44  32  62 W3        30.10R
$$

ALZ049-050-065>069-080200-
SOUTHEAST ALABAMA

CITY           SKY/WX    TMP DP  RH WIND       PRES   REMARKS
DOTHAN         CLEAR     50  25  37 W7        30.10R
OZARK          CLEAR     49  28  42 W3        30.06R
TROY           CLEAR     44  31  60 CALM      30.07R
EUFAULA        FAIR      46  28  49 W5        30.04R
$$



USA.gov is the U.S. government's official web portal to all federal, state and local government web resources and services.